Weather History for KINW - May, 2013

Change the Weather History Date:

Monday, May 20, 2013

  Actual Average Record
Temperature  
Mean Temperature 60 °F 65 °F  
Max Temperature 75 °F 83 °F 97 °F (2008)
Min Temperature 44 °F 47 °F 31 °F (1974)
Degree Days  
Heating Degree Days 5 3  
Month to date heating degree days 74 88  
Since 1 July heating degree days 4183 4467  
Cooling Degree Days 0 2  
Month to date cooling degree days 19 28  
Year to date cooling degree days 26 32  
Growing Degree Days 10 (Base 50)    
Moisture  
Dew Point 20 °F    
Average Humidity 27    
Maximum Humidity 42    
Minimum Humidity 12    
Precipitation  
Precipitation 0.00 in 0.01 in 0.43 in (1979)
Month to date precipitation T 0.22  
Year to date precipitation 1.79 2.00  
Sea Level Pressure  
Sea Level Pressure 29.90 in    
Wind  
Wind Speed 10 mph (WNW)    
Max Wind Speed 240 mph    
Max Gust Speed 32 mph    
Visibility 10 miles    
Events      
T = Trace of Precipitation, MM = Missing Value Source: NWS Daily Summary

Daily Weather History Graph

Daily Weather History Graph

Search for Another Location

Airport or City:

Trip Planner

Search our weather history database for the weather conditions in past years. The results will help you decide how hot, cold, wet, or windy it might be!

Date:

Astronomy

May. 20, 2013 Rise Set
Actual Time 5:15 AM MST 7:23 PM MST
Civil Twilight 4:47 AM MST 7:52 PM MST
Nautical Twilight 4:12 AM MST 8:27 PM MST
Astronomical Twilight 3:34 AM MST 9:04 PM MST
Moon 2:45 PM MST (5/20) 2:00 AM MST (5/20)
Length of Visible Light 15h 05m
Length of Day
14h 08m
Waxing Gibbous, 76% of the Moon is Illuminated
May 20
Waxing Gibbous
May 24
Full
May 31
Last Quarter
Jun 8
New
Jun 16
First Quarter

Hourly Weather History & Observations

Time (MST) Temp. Windchill Dew Point Humidity Pressure Visibility Wind Dir Wind Speed Gust Speed Precip Events Conditions
12:56 AM 51.1 °F - 26.1 °F 38% 29.87 in 10.0 mi WSW 6.9 mph - N/A   Clear
1:56 AM 46.9 °F - 25.0 °F 42% 29.88 in 10.0 mi SW 4.6 mph - N/A   Clear
2:56 AM 48.0 °F - 26.1 °F 42% 29.87 in 10.0 mi SSW 3.5 mph - N/A   Clear
3:56 AM 46.9 °F - 25.0 °F 42% 29.88 in 10.0 mi West 10.4 mph - N/A   Clear
4:56 AM 45.0 °F 39.7 °F 21.9 °F 40% 29.90 in 10.0 mi WSW 10.4 mph - N/A   Clear
5:56 AM 46.9 °F - 21.9 °F 37% 29.91 in 10.0 mi WSW 5.8 mph - N/A   Clear
6:56 AM 54.0 °F - 23.0 °F 30% 29.90 in 10.0 mi West 4.6 mph - N/A   Clear
7:56 AM 57.0 °F - 26.1 °F 30% 29.91 in 10.0 mi NW 9.2 mph - N/A   Clear
8:56 AM 61.0 °F - 26.1 °F 26% 29.93 in 10.0 mi NNW 12.7 mph - N/A   Clear
9:56 AM 64.9 °F - 25.0 °F 22% 29.91 in 10.0 mi NNW 13.8 mph 19.6 mph N/A   Clear
10:56 AM 68.0 °F - 21.9 °F 17% 29.92 in 10.0 mi NW 12.7 mph 23.0 mph N/A   Clear
11:56 AM 71.1 °F - 19.9 °F 14% 29.91 in 10.0 mi NW 21.9 mph 26.5 mph N/A   Clear
12:56 PM 72.0 °F - 19.0 °F 13% 29.90 in 10.0 mi NW 19.6 mph 31.1 mph N/A   Clear
1:56 PM 73.9 °F - 19.0 °F 13% 29.88 in 10.0 mi NNW 16.1 mph 28.8 mph N/A   Clear
2:56 PM 75.0 °F - 19.0 °F 12% 29.88 in 10.0 mi NW 15.0 mph 28.8 mph N/A   Clear
3:56 PM 73.9 °F - 17.1 °F 12% 29.87 in 10.0 mi NW 21.9 mph 31.1 mph N/A   Clear
4:56 PM 73.0 °F - 19.0 °F 13% 29.89 in 10.0 mi NNW 15.0 mph 19.6 mph N/A   Clear
5:56 PM 72.0 °F - 17.1 °F 12% 29.88 in 10.0 mi NNW 10.4 mph 20.7 mph N/A   Clear
6:56 PM 70.0 °F - 16.0 °F 13% 29.88 in 10.0 mi North 6.9 mph - N/A   Clear
7:56 PM 66.0 °F - 17.1 °F 15% 29.90 in 10.0 mi NNW 6.9 mph - N/A   Clear
8:56 PM 55.0 °F - 12.9 °F 19% 29.94 in 10.0 mi Calm Calm - N/A   Clear
9:56 PM 54.0 °F - 14.0 °F 21% 29.94 in 10.0 mi WNW 4.6 mph - N/A   Clear
10:56 PM 48.9 °F - 12.9 °F 24% 29.94 in 10.0 mi SW 6.9 mph - N/A   Clear
11:56 PM 48.0 °F - 14.0 °F 26% 29.94 in 10.0 mi SW 9.2 mph - N/A   Clear